User: anonymous   Login
Location: Unspecified
(0.0000°N, 0.0000°E)
Time: 16:39:57
(UTC+00:00)
Language:

GONETS M 07 - Orbit

View from above orbital plane
View from above orbital plane
View from above satellite
View from above satellite

Ground track
Ground track

The orbit data is extracted from the following two-line orbital elements,

1 39251U 13048C   17204.85883358 +.00000010 +00000-0 +00000-0 0  9999
2 39251 082.4859 210.7216 0017638 096.9610 263.3491 12.42874969175242
Epoch (UTC): 23 July 2017 20:36:43
Eccentricity: 0.0017638
inclination: 82.4859°
perigee height: 1480 km
apogee height: 1508 km
right ascension of ascending node: 210.7216°
argument of perigee: 96.9610°
revolutions per day: 12.42874969
mean anomaly at epoch: 263.3491°
orbit number at epoch: 17524

The dashed part of the orbit path shows where the satellite is in the earth's shadow,  

DLR